sat.trackr.live / text

‹ back to catalog

STARLINK-3914

NORAD 52490 · 2022-049AR

PAYLOAD ACTIVE UNKNOWN

§ Identity

Operator
Country
US
Launch date
2022-05-06
Launch site
AFETR
Launch vehicle
Mass (kg)
RCS (m²)

Purposes: comms

External: N2YO · Heavens-Above · Gunter

§ Orbital elements

Epoch: 2026-05-25T01:41:02.769216Z

Period
95.44 min
Inclination
53.2161°
Eccentricity
0.0001332
Mean motion
15.08835374 rev/d
Perigee alt
538.8 km
Apogee alt
540.7 km
Semi-major
6,917.9 km
B*
1.5851e-5
RAAN
66.2338°
Arg perigee
95.2886°
Mean anomaly
264.8258°
Rev number
22,392

§ Raw data

STARLINK-39141 52490U 22049AR  26145.07017094 -.00000036  00000+0  15851-4 0  99962 52490  53.2161  66.2338 0001332  95.2886 264.8258 15.08835374223922

JSON: /api/v1/satellites/52490 · /tle

For live sub-satellite position, see the globe view (requires WebGL).

§ Visibility from observer

Set your observer location to see the next 7 days of passes ≥ 10°. The values pass through the URL so the page stays shareable.

No JS? Fill the form by hand. The geolocation button needs JavaScript.